{"data":{"norad_id":81103,"intl_designator":"","name":"UNKNOWN","alt_names":[],"object_type":"UNKNOWN","status":"UNKNOWN","operator":null,"country":null,"launch_date":null,"launch_site_code":null,"launch_vehicle":null,"mission":null,"orbit_class":"UNKNOWN","rcs_meters":null,"size_class":null,"mass_kg":null,"dimensions":null,"purposes":[],"wikipedia_slug":null,"has_3d_model":false,"image_url":null,"decayed_at":null,"tle_current":{"epoch":"2026-08-12T01:53:09.841632Z","epoch_age_seconds":3420097,"freshness":"OLD","line1":"1 81103U          26224.07858613  .00007480  00000+0  19236-3 0  9999","line2":"2 81103  52.0351 117.0407 3262493 113.2956 284.1651  8.91143370    11","mean_motion":8.9114337,"eccentricity":0.3262493,"inclination_deg":52.0351,"raan_deg":117.0407,"arg_perigee_deg":113.2956,"mean_anomaly_deg":284.1651,"bstar":0.00019236,"rev_number":1,"period_min":161.59016029037,"perigee_km":243.05249237036,"apogee_km":6655.3899847193,"semimajor_km":9827.3582385448,"source":"CELESTRAK","updated_at":"2026-09-10T09:00:29.609631Z"}}}